Location: Glion
(46.4330°N, 6.9246°E)
Time: 05:37:34
(UTC+00:00)

USA 234 - Pass Details

Date: 03 March 2021
Orbit: 1102 x 1105 km, 123.0° (Epoch: 18 April)

Event Time Altitude Azimuth Distance (km) Brightness Sun altitude
Exits shadow 21:27:20 41° 317° (NW) 1,560 4.3 -40.4°
Drops below altitude 10° 21:32:19 10° 274° (W) 2,962 5.9 -41.0°
Sets 21:34:55 0° 268° (W) 3,919 6.6 -41.3°
